FW1801 Weather Reports


Display with metric or nautical units.
time (UTC)temp
F
wind
direction
speed
MPH
gust
MPH
rain 1hr
in
rain 24hr
in
rain mn
in
humidity
%
barometer
mb
20260505041521 61 144 0.0 8.0 0.00 0.00 0.00 57 1007.1
20260505040020 61 167 0.0 5.0 0.00 0.00 0.00 57 1007.3
20260505034519 61 98 0.0 5.0 0.00 0.00 0.00 57 1007.2
20260505033021 61 19 0.0 3.0 0.00 0.00 0.00 56 1007.3
20260505031536 61 88 1.0 3.0 0.00 0.00 0.00 55 1007.4
20260505030016 62 171 1.0 4.0 0.00 0.00 0.00 54 1007.3
20260505024529 62 164 0.0 3.0 0.00 0.00 0.00 54 1007.6
20260505023015 62 194 2.0 6.0 0.00 0.00 0.00 53 1007.6
20260505021518 63 168 1.0 4.0 0.00 0.00 0.00 52 1007.8
20260505020025 63 168 1.0 5.0 0.00 0.00 0.00 51 1007.8
20260505014512 63 155 1.0 6.0 0.00 0.00 0.00 50 1007.7
20260505013013 63 223 1.0 3.0 0.00 0.00 0.00 51 1007.5
20260505011514 63 195 0.0 3.0 0.00 0.00 0.00 51 1007.4
20260505010011 64 195 1.0 3.0 0.00 0.00 0.00 50 1007.3
20260505004524 65 195 0.0 3.0 0.00 0.00 0.00 48 1007.3
20260505003010 65 165 1.0 5.0 0.00 0.00 0.00 47 1007.2
20260505001509 66 165 1.0 6.0 0.00 0.00 0.00 46 1007.0
20260505000011 67 194 1.0 4.0 0.00 0.00 0.00 45 1006.8
20260504234508 67 169 1.0 7.0 0.00 0.00 0.00 44 1006.9
20260504233008 68 212 1.0 5.0 0.00 0.00 0.00 42 1006.6
20260504231506 69 94 3.0 9.0 0.00 0.00 0.00 41 1006.6
20260504230007 69 184 1.0 5.0 0.00 0.00 0.00 40 1006.5
20260504224508 71 220 2.0 8.0 0.00 0.00 0.00 38 1006.5
20260504223007 72 188 2.0 7.0 0.00 0.00 0.00 38 1006.5
20260504221508 73 159 3.0 8.0 0.00 0.00 0.00 37 1006.6
20260504220003 74 146 3.0 10.0 0.00 0.00 0.00 36 1006.5
20260504214502 74 219 2.0 7.0 0.00 0.00 0.00 36 1006.5
20260504213001 73 204 3.0 7.0 0.00 0.00 0.00 37 1006.5
20260504211612 73 198 4.0 9.0 0.00 0.00 0.00 35 1006.6
20260504210056 74 178 1.0 8.0 0.00 0.00 0.00 38 1006.8
20260504204600 72 174 2.0 7.0 0.00 0.00 0.00 37 1006.9
20260504203100 72 132 3.0 11.0 0.00 0.00 0.00 38 1007.3
20260504201547 71 173 6.0 12.0 0.00 0.00 0.00 37 1007.6
20260504200045 70 157 3.0 11.0 0.00 0.00 0.00 39 1007.9
20260504194544 70 195 5.0 11.0 0.00 0.00 0.00 38 1007.9
20260504193043 71 254 2.0 10.0 0.00 0.00 0.00 37 1007.9
20260504191542 71 225 5.0 12.0 0.00 0.00 0.00 37 1008.2
20260504190039 70 229 4.0 12.0 0.00 0.00 0.00 39 1008.4
20260504184537 69 159 4.0 10.0 0.00 0.00 0.00 40 1008.7
20260504183036 69 150 3.0 13.0 0.00 0.00 0.00 41 1008.8
20260504181535 68 228 5.0 16.0 0.00 0.00 0.00 40 1008.8
20260504180036 68 155 7.0 14.0 0.00 0.00 0.00 40 1009.1
20260504174534 69 277 6.0 17.0 0.00 0.00 0.00 40 1009.0
20260504173034 69 274 6.0 13.0 0.00 0.00 0.00 40 1009.3
20260504171529 67 260 4.0 13.0 0.00 0.00 0.00 41 1009.3
20260504081512 38 244 0.0 2.0 0.00 0.00 0.00 78 1012.7